User: anonymous   Login
Location: Unspecified
(0.0000°N, 0.0000°E)
Time: 21:15:19
(UTC+00:00)
Language:

NOSS 8 (A) - Orbit

View from above orbital plane
View from above orbital plane
View from above satellite
View from above satellite

Ground track
Ground track

The orbit data is extracted from the following two-line orbital elements,

1 17997U 87043A   17141.85222308 0.00000460  00000-0  59539-4 0    07
2 17997  63.3100 153.8067 0872705  47.3683 312.6317 13.47276209    02
Epoch (UTC): 21 May 2017 20:27:12
Eccentricity: 0.0872705
inclination: 63.3100°
perigee height: 431 km
apogee height: 1733 km
right ascension of ascending node: 153.8067°
argument of perigee: 47.3683°
revolutions per day: 13.47276209
mean anomaly at epoch: 312.6317°
orbit number at epoch: 0

The dashed part of the orbit path shows where the satellite is in the earth's shadow,  

DLR